Vertical_Velocity
-9 -0 1 3 1 -5 -4 -1 0 2 0 -1 -3 4 -1 2 2 4 4 4 -1 4 -6 3 2 -1 -2 -0 -2 -2 -2 -1 -1 -3 1 -1 -1 1 0 -0 1 0 -0
-8 -9 -1 3 -1 0 -0 0 -0 3 2 4 2 3 2 3 6 3 3 1 -5 4 0 2 -1 -2 -2 -3 -1 -1 -3 -2 -3 -2 -2 -3 -1 0 0 2 0 -1 -0
-6 -10 -5 -3 3 -2 -2 2 2 4 1 2 -1 3 4 9 2 2 2 4 -7 3 -1 1 -0 -4 -0 -1 -1 -0 -2 -3 -3 -2 -2 -1 -1 -11 -5 -3 1 -2 -1
-2 -7 -4 -5 -1 -4 3 1 -1 2 1 2 4 3 -4 -4 -1 2 4 2 -2 1 0 -1 -1 -1 -2 -3 -0 -2 -1 -2 -2 -2 -3 -2 -1 -1 -4 -5 -3 -3 -5
-1 -7 -2 -6 -2 5 0 3 0 1 3 1 5 0 3 2 6 2 2 -1 -2 2 -2 -0 -1 -1 -2 -0 -3 -2 -2 -1 -2 -1 -2 -2 -1 1 1 -7 -5 2 -1
0 -2 2 10 1 8 3 1 -1 0 3 2 4 1 2 -1 -3 -0 -1 -2 -1 2 0 -0 -3 -1 -0 -1 -1 -1 -0 -2 -1 -1 -1 0 0 1 3 -1 -3 -6 -8
2 1 -1 -1 2 2 1 0 -0 -1 1 3 5 2 6 9 5 1 2 -3 -1 1 -0 -1 -0 -0 0 -2 -1 1 -2 -1 -0 -1 -0 -1 -1 -1 1 2 -1 -1 -4
-2 -1 -1 0 1 2 2 0 -2 -1 -0 2 1 1 7 5 3 2 1 1 2 0 -0 0 -2 -0 -1 -1 1 -1 -2 -1 -1 -2 -2 -0 0 -1 -1 -0 -0 -13 -2
-2 -3 1 1 -0 2 -1 -1 -3 -2 -1 2 4 2 5 2 -1 0 2 2 1 0 -1 0 -0 -1 -1 0 -2 -1 -0 -1 -1 -1 -1 -1 -0 -1 -0 1 2 3 -4
-3 -1 -2 -4 2 9 6 6 5 1 -0 3 6 2 -2 2 3 2 1 3 -0 0 -2 -0 -1 -2 0 -0 -1 -2 -3 -1 -2 -2 -1 -0 -2 -1 0 -0 -1 1 1
1 -0 2 5 5 8 9 6 5 -1 -1 2 2 3 1 2 0 1 3 2 -0 -1 -2 -0 -0 -0 -1 -1 -2 -2 -1 -2 -1 1 -1 -0 0 -1 -1 -0 0 1 2
3 3 3 3 4 4 7 6 4 3 4 1 2 3 2 -0 0 2 1 0 -0 -1 -1 -0 -1 -1 -1 -3 -3 -2 -3 -2 1 0 -0 -0 -0 -1 0 1 -1 -1 -1
1 3 5 3 3 1 3 3 3 3 0 2 2 1 1 1 0 1 0 -1 -0 -1 0 -1 -1 -1 -1 -1 -2 -2 -0 2 2 -1 -2 -3 -3 -2 -1 -0 -3 -3 -1
1 3 2 4 5 4 1 4 2 5 -2 -0 1 1 2 1 1 -0 -1 -0 1 -0 -1 -2 -1 1 -2 -1 0 0 1 -0 -3 -3 -2 1 1 -0 -3 -1 3 6 2
2 3 2 3 3 2 3 4 6 1 1 0 1 1 1 0 -1 0 1 1 1 -1 -2 -1 1 -2 -1 0 -0 -1 -2 -4 -3 -1 2 2 -1 -2 0 3 2 -3 -0
1 1 0 3 2 0 0 1 2 2 2 1 -0 1 1 0 1 1 1 1 -2 -2 -1 1 -1 -0 -0 -0 0 -0 -4 -2 -1 -2 -1 -4 -4 -3 2 -2 0 5 1
-1 -0 -0 0 -0 1 1 -1 1 1 1 -1 0 2 1 1 0 1 -0 -3 -1 0 0 -2 0 1 -1 -1 -2 -1 -1 -1 1 -1 -3 -1 1 1 -1 -4 -2 -2 6
1 2 -0 -0 1 -0 1 -0 3 1 -0 1 2 2 1 0 -0 0 -1 -1 -1 0 -1 0 -2 -0 -1 -2 -1 -2 -0 1 -2 -3 -0 1 -1 0 -1 2 2 2 -3
1 -1 1 3 -2 1 2 1 -1 0 2 2 2 1 1 0 -0 -1 -1 -0 -1 -2 0 -1 0 -4 -1 -2 -1 1 -1 -2 -5 -2 -1 -2 0 -2 3 7 0 -4 -3
1 -7 -1 -1 5 2 1 -1 -0 2 2 1 1 1 -0 -1 -1 0 1 -2 -1 -0 -0 0 -3 -2 -3 -1 -1 -2 -4 -1 3 -1 0 -0 -1 -1 2 6 2 -5 -7
-3 2 8 3 0 -1 0 1 2 4 2 1 -0 -1 -1 0 1 -1 -1 -0 -0 -1 -1 -0 -1 -1 0 -1 -1 -2 -1 1 2 -1 -2 -0 -2 0 -1 -0 2 -1 9
1 5 -0 3 2 3 2 2 2 1 1 1 0 0 1 -0 -2 -1 -1 -1 0 -1 -4 -3 -0 2 1 2 -2 -2 1 1 0 -0 -2 -4 3 -5 0 -2 2 1 -1
0 2 0 -1 3 4 8 -2 1 1 -0 -0 -0 -1 -1 -1 -1 0 1 -1 -2 -2 -1 -2 -3 -5 -2 -4 -1 0 -2 -0 1 0 -2 -3 -3 -3 -0 -0 -0 1 1
0 2 1 1 -2 3 3 7 -1 -0 0 -0 0 -1 -1 -0 1 -0 -1 -1 0 1 -0 -3 -3 -5 -6 -4 -5 -2 -2 -3 -4 -4 -5 -0 2 3 1 1 -0 -0 0
1 4 2 1 -0 2 2 2 0 -0 -1 -1 -1 -0 0 0 -1 -1 0 2 1 -3 -6 -2 -3 -2 -2 -2 4 1 -2 6 -2 1 -3 -2 -1 -3 -2 -2 -0 1 2
2 2 1 1 -1 1 -0 -1 0 -0 -0 -0 -0 -0 -1 -1 -0 1 4 0 -1 1 1 0 2 -3 2 2 1 -2 1 -0 -3 -3 -0 -1 -2 -2 -2 -3 -4 2 -1
Height
1455 1456 1458 1461 1463 1466 1468 1469 1470 1471 1473 1474 1478 1484 1488 1492 1496 1500 1504 1507 1509 1511 1512 1513 1514 1515 1515 1515 1514 1512 1509 1508 1504 1503 1501 1498 1496 1495 1493 1493 1492 1492 1490
1446 1449 1452 1454 1456 1459 1461 1462 1464 1467 1468 1470 1472 1478 1483 1487 1491 1496 1500 1503 1506 1508 1509 1511 1512 1513 1513 1512 1511 1509 1506 1503 1501 1499 1496 1495 1495 1492 1492 1490 1489 1487 1485
1436 1439 1442 1446 1449 1452 1455 1456 1459 1461 1463 1465 1468 1474 1480 1484 1488 1493 1497 1500 1504 1505 1507 1509 1510 1511 1511 1510 1508 1505 1504 1502 1500 1498 1498 1495 1493 1489 1486 1486 1483 1483 1480
1425 1428 1431 1437 1441 1445 1448 1451 1454 1456 1459 1462 1464 1469 1473 1479 1484 1489 1493 1497 1500 1503 1505 1507 1507 1508 1507 1507 1504 1503 1501 1499 1499 1497 1495 1494 1492 1489 1481 1477 1476 1473 1470
1413 1415 1419 1426 1433 1437 1440 1444 1448 1452 1454 1458 1462 1466 1471 1476 1481 1486 1490 1494 1497 1501 1503 1504 1505 1505 1504 1503 1502 1500 1499 1497 1495 1493 1492 1491 1488 1486 1483 1472 1468 1465 1463
1405 1406 1412 1418 1424 1429 1433 1438 1443 1447 1451 1455 1458 1463 1468 1473 1478 1483 1488 1491 1495 1498 1500 1501 1502 1502 1501 1500 1499 1497 1495 1494 1492 1490 1488 1486 1485 1482 1479 1472 1465 1459 1454
1399 1401 1403 1409 1415 1420 1426 1431 1437 1442 1447 1452 1457 1461 1467 1472 1476 1481 1485 1489 1493 1496 1498 1499 1499 1499 1498 1497 1496 1494 1493 1491 1489 1487 1485 1483 1481 1478 1474 1469 1462 1454 1448
1394 1394 1396 1401 1408 1414 1419 1425 1432 1438 1444 1449 1454 1460 1466 1470 1475 1480 1484 1488 1492 1494 1495 1496 1496 1496 1495 1494 1493 1491 1490 1488 1486 1484 1482 1479 1477 1474 1471 1466 1460 1446 1443
1385 1388 1390 1394 1401 1406 1412 1419 1426 1434 1441 1447 1452 1458 1465 1469 1474 1479 1484 1487 1489 1491 1493 1494 1493 1493 1492 1491 1490 1488 1487 1485 1483 1480 1477 1475 1472 1469 1466 1462 1458 1453 1436
1378 1380 1384 1388 1396 1403 1407 1413 1422 1430 1439 1447 1452 1457 1463 1469 1474 1479 1483 1485 1487 1489 1490 1491 1490 1490 1489 1488 1486 1485 1483 1481 1478 1476 1473 1470 1467 1464 1460 1457 1453 1449 1443
1369 1374 1378 1383 1391 1399 1406 1412 1419 1428 1437 1445 1450 1456 1462 1468 1474 1479 1481 1483 1485 1487 1488 1488 1488 1487 1486 1485 1483 1482 1479 1477 1474 1471 1467 1465 1461 1458 1454 1451 1447 1442 1438
1366 1370 1374 1379 1387 1397 1406 1413 1420 1428 1436 1444 1450 1457 1462 1468 1473 1478 1480 1482 1483 1485 1486 1486 1485 1484 1483 1481 1480 1478 1475 1473 1469 1466 1462 1459 1455 1451 1448 1443 1439 1435 1431
1368 1369 1374 1379 1387 1397 1406 1413 1420 1428 1435 1444 1451 1457 1463 1468 1473 1476 1479 1481 1481 1482 1483 1483 1483 1482 1480 1478 1475 1473 1471 1468 1464 1460 1457 1453 1449 1444 1440 1436 1432 1427 1422
1371 1372 1375 1381 1388 1397 1405 1413 1420 1428 1436 1445 1452 1458 1463 1468 1472 1475 1477 1479 1480 1480 1481 1481 1480 1478 1476 1474 1472 1469 1465 1462 1459 1455 1451 1447 1443 1438 1434 1430 1426 1421 1416
1373 1374 1377 1381 1389 1398 1407 1415 1422 1429 1437 1445 1453 1459 1463 1467 1471 1474 1476 1477 1478 1478 1478 1478 1476 1474 1473 1470 1467 1463 1460 1456 1453 1449 1446 1441 1437 1433 1430 1425 1420 1415 1409
1373 1376 1380 1386 1392 1400 1408 1417 1424 1431 1439 1447 1453 1459 1462 1466 1470 1472 1474 1475 1476 1476 1476 1475 1473 1471 1468 1465 1462 1459 1455 1451 1447 1443 1439 1434 1430 1425 1421 1417 1414 1410 1403
1373 1377 1382 1388 1396 1404 1411 1419 1426 1433 1441 1447 1454 1458 1462 1465 1468 1471 1472 1474 1474 1474 1473 1471 1469 1466 1463 1460 1457 1454 1449 1445 1441 1437 1432 1427 1423 1418 1412 1408 1404 1401 1396
1372 1379 1385 1393 1400 1408 1415 1423 1430 1436 1442 1448 1453 1457 1461 1464 1467 1469 1471 1472 1472 1471 1470 1468 1465 1462 1459 1455 1452 1448 1444 1439 1435 1431 1426 1420 1415 1411 1407 1402 1396 1391 1387
1376 1383 1390 1397 1405 1412 1418 1425 1432 1438 1444 1448 1453 1457 1460 1464 1466 1468 1469 1470 1470 1468 1466 1464 1460 1457 1454 1450 1446 1442 1437 1433 1429 1424 1419 1415 1410 1406 1402 1396 1389 1383 1377
1378 1385 1394 1401 1408 1414 1421 1428 1434 1440 1445 1448 1453 1457 1460 1463 1465 1466 1467 1468 1467 1465 1463 1460 1456 1452 1450 1446 1442 1437 1432 1427 1423 1418 1414 1409 1405 1400 1395 1390 1383 1375 1369
1383 1389 1396 1403 1410 1417 1424 1430 1436 1441 1445 1449 1453 1457 1460 1462 1464 1465 1465 1465 1464 1461 1459 1457 1453 1450 1445 1440 1436 1432 1428 1423 1418 1413 1408 1403 1398 1394 1389 1384 1377 1370 1366
1386 1393 1399 1407 1414 1421 1426 1431 1437 1442 1446 1450 1454 1457 1459 1461 1462 1463 1463 1462 1460 1458 1455 1452 1450 1445 1441 1435 1431 1426 1423 1419 1414 1408 1402 1397 1393 1387 1381 1375 1369 1366 1360
1390 1396 1403 1409 1417 1424 1430 1433 1438 1443 1447 1451 1454 1457 1459 1460 1461 1461 1460 1459 1457 1454 1450 1447 1443 1439 1435 1430 1426 1421 1417 1414 1409 1404 1398 1392 1385 1379 1373 1368 1364 1359 1352
1394 1400 1406 1413 1419 1427 1433 1438 1441 1445 1449 1452 1454 1457 1459 1459 1459 1459 1458 1455 1453 1450 1446 1442 1438 1433 1429 1424 1420 1416 1412 1407 1402 1398 1391 1385 1380 1374 1369 1363 1359 1354 1348
1399 1405 1410 1416 1423 1430 1436 1441 1444 1447 1450 1453 1455 1457 1458 1458 1458 1457 1455 1452 1449 1446 1442 1439 1434 1429 1424 1420 1418 1413 1408 1404 1399 1392 1385 1379 1373 1368 1363 1359 1355 1349 1343
1404 1409 1415 1421 1427 1434 1438 1442 1446 1449 1452 1453 1455 1456 1457 1456 1455 1454 1452 1450 1447 1444 1440 1436 1431 1426 1421 1417 1413 1409 1405 1399 1392 1385 1380 1374 1370 1365 1360 1355 1349 1344 1339